Regional Weather Roundup
Issued by NWS

Home | Current Version | Previous Version | Graphics & Text | Print | Product List | Glossary On
Versions: 1 2 3 4 5 6 7 8 9 10 11 12 13 14 15 16 17 18 19 20 21 22 23 24 25 26 27 28 29 30 31 32 33 34 35 36 37 38 39 40 41 42 43 44 45 46 47 48 49 50
000
ASUS44 KMEG 200210
RWRTN
TENNESSEE HOURLY STATE WEATHER ROUNDUP
NATIONAL WEATHER SERVICE MEMPHIS TN
900 PM CDT SAT APR 19 2014

TNZ002-004-019-021-049-052-054-088>092-200300-
WEST TENNESSEE

CITY           SKY/WX    TMP DP  RH WIND       PRES   REMARKS
MEMPHIS INTL   PTCLDY    68  43  40 NE5       30.15R
NWS MEMPHIS      N/A     64 N/A N/A MISG        N/A
JACKSON        MOCLDY    62  42  47 CALM      30.15R
DYERSBURG      PTCLDY    64  39  39 CALM      30.17R
UNION CITY     CLEAR     66  39  37 NE5       30.15S
PARIS          CLEAR     56  42  59 CALM      30.17R
LEXINGTON      CLEAR     63  37  39 N5        30.15R
$$

TNZ008-025-027-028-033-062-065-066-200300-
NORTH MIDDLE TENNESSEE

CITY           SKY/WX    TMP DP  RH WIND       PRES   REMARKS
NASHVILLE      PTCLDY    66  40  38 N6        30.16R
DICKSON        CLEAR     64  37  36 CALM      30.17R
PORTLAND         N/A     63  37  39 CALM      30.17R
CLARKSVILLE    CLEAR     61  42  49 CALM      30.17R
SMYRNA         CLEAR     58  44  59 N5        30.17R
MURFREESBORO   CLEAR     64  40  41 CALM      30.15R
COOKEVILLE     CLEAR     54  41  62 CALM      30.16S
LIVINGSTON     PTCLDY    63  39  41 N8        30.18R
GALLATIN       CLEAR     64  41  43 N6        30.17R
CROSSVILLE     PTCLDY    54  40  59 SE3       30.20R
$$

TNZ061-075-076-078-094-096-097-200300-
SOUTH MIDDLE TENNESSEE

CITY           SKY/WX    TMP DP  RH WIND       PRES   REMARKS
LEWISBURG      CLEAR     55  46  71 CALM      30.15R
FAYETTEVILLE   CLEAR     58  42  55 N6        30.15R
TULLAHOMA      CLEAR     54  39  58 CALM      30.17R
WINCHESTER     CLEAR     59  43  55 SE3       30.17S
MCMINNVILLE    CLEAR     57  43  58 CALM      30.16R
COLUMBIA       CLEAR     59  48  67 CALM      30.15R
SHELBYVILLE    CLEAR     57  45  62 CALM      30.16R
$$

TNZ017-018-042-046-047-200300-
NORTHEAST TENNESSEE

CITY           SKY/WX    TMP DP  RH WIND       PRES   REMARKS
TRI CITIES     CLOUDY    57  39  51 CALM      30.21R
ELIZABETHTON   CLEAR     57  39  51 CALM      30.21R
$$

TNZ012-013-036-069-073-074-200300-
CENTRAL EAST TENNESSEE

CITY           SKY/WX    TMP DP  RH WIND       PRES   REMARKS
KNOXVILLE      MOCLDY    55  52  89 NE5       30.17R
OAK RIDGE      MOCLDY    56  45  66 CALM      30.19R
$$

TNZ083-085-099-200300-
SOUTHEAST TENNESSEE

CITY           SKY/WX    TMP DP  RH WIND       PRES   REMARKS
CHATTANOOGA    CLOUDY    61  47  59 SE3       30.18R
$$

SKY/WX REPORTED AS FAIR MEANS FEW OR NO CLOUDS BELOW
12 THOUSAND FEET.




USA.gov is the U.S. government's official web portal to all federal, state and local government web resources and services.